User: anonymous   Login
Location: Boca do Mato
(22.9085°S, 43.2930°W)
Time: 19:21:06
(UTC+00:00)
Language:

Atlas Centaur 2 - Orbit

View from above orbital plane
View from above orbital plane
View from above satellite
View from above satellite

Ground track
Ground track

The orbit data is extracted from the following two-line orbital elements,

1   694U 63047A   20269.83073312 +.00000233 +00000-0 +17171-4 0  9994
2   694 030.3589 058.1151 0585721 338.3232 019.3497 14.02642778851202
Epoch (UTC): 25 September 2020 19:56:15
Eccentricity: 0.0585721
inclination: 30.3589°
perigee height: 459 km
apogee height: 1310 km
right ascension of ascending node: 58.1151°
argument of perigee: 338.3232°
revolutions per day: 14.02642778
mean anomaly at epoch: 19.3497°
orbit number at epoch: 85120

The dashed part of the orbit path shows where the satellite is in the earth's shadow,  

DLR